Zephyrhills, FL

4:49 PM EDT on September 18, 2019 (GMT -0400)
Zephyrhills Municipal

Weather History for KZPH - August, 2019

Change the Weather History Date:

Wednesday, August 21, 2019

  Actual Average (KPCM) Record (KPCM)
Temperature  
Mean Temperature 83 °F -  
Max Temperature 93 °F 91 °F 97 °F (1983)
Min Temperature 73 °F 72 °F 67 °F (1984)
Cooling Degree Days 18    
Growing Degree Days 33 (Base 50)    
Moisture  
Dew Point 74 °F    
Average Humidity 79    
Maximum Humidity 99    
Minimum Humidity 49    
Precipitation  
Precipitation 0.00 in - - ()
Sea Level Pressure  
Sea Level Pressure 30.09 in    
Wind  
Wind Speed 3 mph ()    
Max Wind Speed 10 mph    
Max Gust Speed -    
Visibility 9.5 miles    
Events Rain , Thunderstorm    
Averages and records for this station are not official NWS values.
T = Trace of Precipitation, MM = Missing Value Source: Averaged Metar Reports

Daily Weather History Graph

Daily Weather History Graph

Search for Another Location

Airport or City:

Astronomy

Aug. 21, 2019 Rise Set
Actual Time 7:01 AM EDT 8:01 PM EDT
Civil Twilight 6:37 AM EDT 8:26 PM EDT
Nautical Twilight 6:08 AM EDT 8:54 PM EDT
Astronomical Twilight 5:38 AM EDT 9:24 PM EDT
Moon 11:47 PM EDT (8/21) 12:09 PM EDT (8/21)
Length of Visible Light 13h 48m
Length of Day
13h 00m
Waning Gibbous, 69% of the Moon is Illuminated
Aug 21
Waning Gibbous
Aug 23
Last Quarter
Aug 30
New
Sep 5
First Quarter
Sep 14
Full

Hourly Weather History & Observations

Time (EDT) Temp. Heat Index Dew Point Humidity Pressure Visibility Wind Dir Wind Speed Gust Speed Precip Events Conditions
12:15 AM 76.8 °F - 74.5 °F 92% 30.12 in 10.0 mi Calm Calm - N/A   Clear
12:55 AM 77.4 °F - 74.8 °F 92% 30.10 in 10.0 mi ESE 4.6 mph - N/A   Clear
1:15 AM 77.4 °F - 74.7 °F 91% 30.10 in 10.0 mi ESE 3.5 mph - N/A   Clear
1:35 AM 77.0 °F - 74.7 °F 92% 30.10 in 10.0 mi Calm Calm - N/A   Clear
1:55 AM 76.5 °F - 74.5 °F 94% 30.09 in 10.0 mi ESE 4.6 mph - N/A   Clear
2:15 AM 76.5 °F - 74.7 °F 94% 30.10 in 10.0 mi Calm Calm - N/A   Clear
2:35 AM 76.3 °F - 74.5 °F 94% 30.09 in 10.0 mi Calm Calm - N/A   Clear
2:55 AM 75.7 °F - 74.3 °F 95% 30.08 in 10.0 mi Calm Calm - N/A   Clear
3:15 AM 75.9 °F - 74.5 °F 95% 30.08 in 10.0 mi Calm Calm - N/A   Clear
3:35 AM 75.7 °F - 74.5 °F 96% 30.09 in 10.0 mi Calm Calm - N/A   Clear
3:55 AM 75.9 °F - 74.7 °F 96% 30.08 in 10.0 mi North 3.5 mph - N/A   Clear
4:15 AM 74.8 °F - 73.8 °F 96% 30.08 in 10.0 mi ENE 3.5 mph - N/A   Clear
4:35 AM 75.2 °F - 74.1 °F 96% 30.08 in 10.0 mi ENE 4.6 mph - N/A   Clear
4:55 AM 75.2 °F - 73.9 °F 96% 30.08 in 10.0 mi Calm Calm - N/A   Clear
5:15 AM 75.4 °F - 74.1 °F 96% 30.08 in 10.0 mi Calm Calm - N/A   Clear
5:35 AM 74.3 °F - 73.4 °F 97% 30.08 in 10.0 mi NNE 3.5 mph - N/A   Clear
5:55 AM 73.9 °F - 73.4 °F 98% 30.09 in 10.0 mi Calm Calm - N/A   Clear
6:15 AM 73.9 °F - 73.4 °F 98% 30.10 in 10.0 mi Calm Calm - N/A   Clear
6:35 AM 73.2 °F - 72.7 °F 98% 30.09 in 7.0 mi Calm Calm - N/A   Clear
6:55 AM 73.8 °F - 73.4 °F 99% 30.10 in 7.0 mi Calm Calm - N/A   Clear
7:15 AM 73.4 °F - 73.0 °F 99% 30.10 in 0.8 mi Calm Calm - N/A   Mist
7:35 AM 73.4 °F - 73.0 °F 99% 30.11 in 5.0 mi Calm Calm - N/A   Clear
7:55 AM 74.7 °F - 74.5 °F 99% 30.11 in 10.0 mi NE 3.5 mph - N/A   Clear
8:15 AM 76.8 °F - 75.9 °F 97% 30.11 in 10.0 mi ENE 4.6 mph - N/A   Clear
8:35 AM 78.6 °F - 76.1 °F 92% 30.12 in 10.0 mi East 4.6 mph - N/A   Clear
8:55 AM 80.1 °F 85.5 °F 76.3 °F 88% 30.12 in 10.0 mi ESE 8.1 mph - N/A   Clear
9:15 AM 81.3 °F 88.3 °F 76.3 °F 85% 30.12 in 10.0 mi East 6.9 mph - N/A   Clear
9:35 AM 82.8 °F 90.1 °F 75.2 °F 78% 30.12 in 10.0 mi East 5.8 mph - N/A   Clear
9:55 AM 84.2 °F 91.9 °F 74.8 °F 73% 30.13 in 10.0 mi ESE 8.1 mph - N/A   Clear
10:15 AM 84.4 °F 92.0 °F 74.7 °F 72% 30.13 in 10.0 mi SE 9.2 mph - N/A   Scattered Clouds
10:35 AM 85.5 °F 94.2 °F 75.2 °F 71% 30.13 in 10.0 mi SE 9.2 mph - N/A   Scattered Clouds
11:15 AM 87.1 °F 95.9 °F 74.7 °F 66% 30.13 in 10.0 mi SE 5.8 mph - N/A   Scattered Clouds
11:35 AM 87.4 °F 96.7 °F 75.0 °F 66% 30.13 in 10.0 mi SE 8.1 mph - N/A   Scattered Clouds
11:55 AM 88.0 °F 96.5 °F 74.1 °F 63% 30.13 in 10.0 mi ESE 8.1 mph - N/A   Scattered Clouds
12:15 PM 87.6 °F 95.7 °F 73.4 °F 63% 30.12 in 10.0 mi ESE 6.9 mph - N/A   Mostly Cloudy
12:35 PM 88.7 °F 96.7 °F 73.0 °F 60% 30.12 in 10.0 mi ESE 8.1 mph - N/A   Scattered Clouds
12:55 PM 89.2 °F 97.9 °F 73.8 °F 60% 30.11 in 10.0 mi ESE 5.8 mph - N/A   Mostly Cloudy
1:15 PM 89.2 °F 98.4 °F 74.1 °F 61% 30.10 in 10.0 mi SE 8.1 mph - N/A   Scattered Clouds
1:35 PM 87.6 °F 95.7 °F 73.4 °F 63% 30.10 in 10.0 mi SE 4.6 mph - N/A   Scattered Clouds
2:15 PM 90.7 °F 100.1 °F 73.9 °F 58% 30.08 in 10.0 mi East 6.9 mph - N/A   Mostly Cloudy
2:35 PM 90.9 °F 100.0 °F 73.6 °F 57% 30.07 in 7.0 mi SE 9.2 mph - N/A   Mostly Cloudy
3:15 PM 92.3 °F 100.9 °F 73.0 °F 53% 30.06 in 10.0 mi South 8.1 mph - N/A   Scattered Clouds
3:35 PM 92.7 °F 100.5 °F 72.0 °F 51% 30.05 in 10.0 mi ESE 6.9 mph - N/A   Scattered Clouds
3:55 PM 92.5 °F 100.7 °F 72.7 °F 52% 30.05 in 10.0 mi SE 4.6 mph - N/A   Mostly Cloudy
4:15 PM 92.8 °F 100.3 °F 72.0 °F 50% 30.05 in 10.0 mi East 5.8 mph - N/A   Mostly Cloudy
4:35 PM 92.1 °F 99.9 °F 72.0 °F 52% 30.04 in 10.0 mi ESE 4.6 mph - N/A   Scattered Clouds
4:55 PM 93.0 °F 101.9 °F 73.2 °F 52% 30.04 in 10.0 mi South 6.9 mph - N/A   Scattered Clouds
5:15 PM 93.0 °F 100.7 °F 71.8 °F 50% 30.04 in 10.0 mi SE 6.9 mph - N/A   Scattered Clouds
5:35 PM 92.7 °F 99.4 °F 71.1 °F 49% 30.04 in 10.0 mi SSE 3.5 mph - N/A   Scattered Clouds
5:55 PM 89.2 °F 97.4 °F 73.4 °F 59% 30.03 in 10.0 mi ENE 9.2 mph - N/A   Mostly Cloudy
6:15 PM 86.7 °F 95.0 °F 74.1 °F 66% 30.04 in 10.0 mi ENE 10.4 mph - N/A   Overcast
6:35 PM 84.2 °F 91.9 °F 74.7 °F 73% 30.03 in 10.0 mi East 6.9 mph - N/A Rain Light Rain
6:55 PM 84.7 °F 93.2 °F 75.2 °F 73% 30.03 in 10.0 mi Calm Calm - N/A   Scattered Clouds
7:15 PM 82.9 °F 89.9 °F 74.7 °F 76% 30.03 in 10.0 mi East 4.6 mph - N/A Thunderstorm Scattered Clouds
7:35 PM 82.4 °F 89.0 °F 74.7 °F 77% 30.04 in 10.0 mi East 4.6 mph - N/A   Scattered Clouds
7:55 PM 81.9 °F 88.7 °F 75.6 °F 81% 30.05 in 10.0 mi East 3.5 mph - N/A   Overcast
8:15 PM 81.5 °F 88.3 °F 75.9 °F 83% 30.06 in 5.0 mi South 4.6 mph - N/A   Haze
8:35 PM 81.7 °F 88.7 °F 75.9 °F 83% 30.07 in 1.2 mi SE 3.5 mph - N/A   Haze
8:55 PM 81.5 °F 88.0 °F 75.6 °F 82% 30.07 in 10.0 mi SE 5.8 mph - N/A   Clear
9:15 PM 81.1 °F 87.2 °F 75.2 °F 82% 30.07 in 10.0 mi Calm Calm - N/A   Clear
9:35 PM 81.3 °F 87.4 °F 74.8 °F 81% 30.08 in 10.0 mi Calm Calm - N/A   Clear
9:55 PM 81.5 °F 87.4 °F 74.5 °F 79% 30.09 in 10.0 mi Calm Calm - N/A   Clear
10:15 PM 81.3 °F 87.2 °F 74.5 °F 80% 30.09 in 10.0 mi Calm Calm - N/A   Clear
10:35 PM 80.8 °F 86.5 °F 75.0 °F 83% 30.10 in 10.0 mi Calm Calm - N/A   Clear
10:55 PM 79.3 °F - 75.9 °F 89% 30.10 in 10.0 mi Calm Calm - N/A   Clear
11:15 PM 79.0 °F - 75.7 °F 90% 30.10 in 10.0 mi Calm Calm - N/A   Clear
11:35 PM 78.1 °F - 75.4 °F 91% 30.10 in 10.0 mi Calm Calm - N/A   Clear
11:55 PM 77.2 °F - 75.0 °F 93% 30.10 in 10.0 mi ENE 3.5 mph - N/A   Clear